Weather in Marianivka

Ukraine / Zhytomyr Region     49°39′17″N   29°03′54″E
temp.,
°C
wind,
m/s
gust,
m/s
humid.,
%
clouds,
%
prec.,
mm/h
press.,
hPa
HPBL,
m
6 may, thu
thu600:00+11s8168389 0.0 1006712
03:00+9s71480100 0.1 1006437
06:00+8ssw61391100 0.0 1006408
09:00+8wnw61188100 1.9 1010946
12:00+12wnw7106094 0.1 10111563
15:00+13wnw794699 0.1 10121893
18:00+13wnw5750100 0.0 10132045
21:00+9wsw225640 0.0 101411
7 may, fri
fri700:00+8ssw2258100 0.0 101413
03:00+7s376891 0.0 1014115
06:00+9s5106988 0.0 1013246
09:00+10sse51174100 0.1 1013436
12:00+14s91274100 0.1 10111199
15:00+12s81281100 0.4 1009873
18:00+12s61089100 0.1 1008571
21:00+11s3495100 0.1 100787
8 may, sat
sat800:00+11w3793100 1.2 1007278
03:00+9wnw51192100 2.1 1009570
06:00+6wnw71287100 0.8 1011650
09:00+7wnw81173100 0.8 1014849
12:00+10wnw9115237 0.0 10141748
15:00+10nw9115390 0.0 10161986
18:00+9nw7106114 0.1 10171599
21:00+5wnw612712 0.1 1019549
9 may, sun
sun900:00+3w412785 0.0 1021304
03:00+3wnw512860 0.0 1022308
06:00+2wnw411921 0.0 1023273
09:00+8nw57705 0.0 1025733
12:00+11nw455461 0.1 10251741
15:00+14wnw344385 0.1 10252282
18:00+14wnw23435 0.0 10241849
21:00+9sse11562 0.0 102610
10 may, mon
mon1000:00+6sse46715 0.0 102789
03:00+6s47755 0.0 1027105
06:00+5s35745 0.0 102778
09:00+12sse45605 0.0 1027363
12:00+16sse44485 0.0 10261405
15:00+17sse44474 0.0 10241591
18:00+17se33510 0.0 10231476
21:00+12ese45745 0.0 102463